Princeton, MN

9:21 PM CDT on July 27, 2016 (GMT -0500)
Princeton Municipal

Weather History for KPNM - November, 2012

Change the Weather History Date:

Sunday, November 18, 2012

  Actual Average Record
Temperature  
Mean Temperature 50 °F -  
Max Temperature 57 °F 36 °F 60 °F (2001)
Min Temperature 42 °F 21 °F 1 °F (2014)
Degree Days  
Heating Degree Days 16    
Moisture  
Dew Point 32 °F    
Average Humidity 52    
Maximum Humidity 61    
Minimum Humidity 38    
Precipitation  
Precipitation 0.00 in - - ()
Sea Level Pressure  
Sea Level Pressure 30.09 in    
Wind  
Wind Speed 11 mph (SE)    
Max Wind Speed 20 mph    
Max Gust Speed 22 mph    
Visibility 10 miles    
Events      
Averages and records for this station are not official NWS values.
T = Trace of Precipitation, MM = Missing Value Source: NWS Daily Summary

Daily Weather History Graph

Daily Weather History Graph

Search for Another Location

Airport or City:

Trip Planner

Search our weather history database for the weather conditions in past years. The results will help you decide how hot, cold, wet, or windy it might be!

Date:

Astronomy

Nov. 18, 2012 Rise Set
Actual Time 7:18 AM CST 4:40 PM CST
Civil Twilight 6:45 AM CST 5:13 PM CST
Nautical Twilight 6:09 AM CST 5:49 PM CST
Astronomical Twilight 5:34 AM CST 6:24 PM CST
Moon 11:42 AM CST (11/18) 10:05 PM CST (11/18)
Length of Visible Light 10h 27m
Length of Day
9h 22m
Waxing Crescent, 30% of the Moon is Illuminated
Nov 18
Waxing Crescent
Nov 20
First Quarter
Nov 28
Full
Dec 6
Last Quarter
Dec 13
New

Hourly Weather History & Observations

Time (CST) Temp. Windchill Dew Point Humidity Pressure Visibility Wind Dir Wind Speed Gust Speed Precip Events Conditions
12:11 AM 50.0 °F - 33.8 °F 54% 30.16 in 10.0 mi SSE 13.8 mph - N/A   Overcast
12:31 AM 50.0 °F - 33.8 °F 54% 30.16 in 10.0 mi SSE 15.0 mph 18.4 mph N/A   Overcast
12:51 AM 48.2 °F - 33.8 °F 58% 30.16 in 10.0 mi SE 11.5 mph 17.3 mph N/A   Overcast
1:11 AM 48.2 °F - 33.8 °F 58% 30.16 in 10.0 mi SSE 11.5 mph - N/A   Overcast
1:31 AM 48.2 °F - 33.8 °F 58% 30.15 in 10.0 mi SE 10.4 mph - N/A   Overcast
1:51 AM 48.2 °F - 33.8 °F 58% 30.15 in 10.0 mi SSE 10.4 mph - N/A   Mostly Cloudy
2:11 AM 48.2 °F - 33.8 °F 58% 30.15 in 10.0 mi SE 10.4 mph - N/A   Overcast
2:31 AM 48.2 °F - 33.8 °F 58% 30.15 in 10.0 mi SSE 11.5 mph 17.3 mph N/A   Overcast
2:51 AM 48.2 °F - 33.8 °F 58% 30.14 in 10.0 mi SE 10.4 mph 16.1 mph N/A   Overcast
3:11 AM 48.2 °F - 33.8 °F 58% 30.14 in 10.0 mi SE 11.5 mph - N/A   Overcast
3:31 AM 46.4 °F 41.5 °F 32.0 °F 57% 30.13 in 10.0 mi SE 10.4 mph - N/A   Mostly Cloudy
3:51 AM 46.4 °F 41.9 °F 32.0 °F 57% 30.13 in 10.0 mi SE 9.2 mph - N/A   Scattered Clouds
4:11 AM 46.4 °F 42.4 °F 32.0 °F 57% 30.13 in 10.0 mi SE 8.1 mph - N/A   Mostly Cloudy
4:31 AM 46.4 °F 42.9 °F 32.0 °F 57% 30.12 in 10.0 mi SE 6.9 mph - N/A   Scattered Clouds
4:51 AM 46.4 °F 42.4 °F 32.0 °F 57% 30.12 in 10.0 mi SE 8.1 mph - N/A   Scattered Clouds
5:11 AM 44.6 °F 40.2 °F 30.2 °F 57% 30.12 in 10.0 mi SE 8.1 mph - N/A   Clear
5:31 AM 44.6 °F 40.2 °F 30.2 °F 57% 30.12 in 10.0 mi SE 8.1 mph - N/A   Clear
5:51 AM 44.6 °F 40.2 °F 30.2 °F 57% 30.12 in 10.0 mi SE 8.1 mph - N/A   Clear
6:11 AM 44.6 °F 39.2 °F 30.2 °F 57% 30.11 in 10.0 mi SE 10.4 mph 16.1 mph N/A   Scattered Clouds
6:32 AM 44.6 °F 39.7 °F 30.2 °F 57% 30.11 in 10.0 mi SE 9.2 mph - N/A   Scattered Clouds
6:51 AM 44.6 °F 39.7 °F 30.2 °F 57% 30.11 in 10.0 mi SE 9.2 mph - N/A   Scattered Clouds
7:11 AM 44.6 °F 39.7 °F 30.2 °F 57% 30.11 in 10.0 mi ESE 9.2 mph - N/A   Scattered Clouds
7:32 AM 42.8 °F 38.6 °F 30.2 °F 61% 30.10 in 10.0 mi SE 6.9 mph - N/A   Clear
7:51 AM 42.8 °F 38.0 °F 30.2 °F 61% 30.10 in 10.0 mi ESE 8.1 mph - N/A   Clear
8:11 AM 42.8 °F 38.6 °F 30.2 °F 61% 30.10 in 10.0 mi SE 6.9 mph - N/A   Clear
8:32 AM 44.6 °F 40.2 °F 30.2 °F 57% 30.11 in 10.0 mi SE 8.1 mph - N/A   Clear
8:51 AM 46.4 °F 40.7 °F 30.2 °F 53% 30.10 in 10.0 mi SSE 12.7 mph 17.3 mph N/A   Clear
9:11 AM 46.4 °F 40.7 °F 30.2 °F 53% 30.11 in 10.0 mi SSE 12.7 mph 18.4 mph N/A   Clear
9:32 AM 48.2 °F - 30.2 °F 50% 30.10 in 10.0 mi SSE 11.5 mph - N/A   Clear
9:51 AM 48.2 °F - 30.2 °F 50% 30.10 in 10.0 mi SSE 11.5 mph 19.6 mph N/A   Clear
10:11 AM 51.8 °F - 28.4 °F 41% 30.10 in 10.0 mi SSE 13.8 mph 20.7 mph N/A   Clear
10:31 AM 50.0 °F - 28.4 °F 43% 30.09 in 10.0 mi SSE 19.6 mph - N/A   Clear
10:51 AM 51.8 °F - 30.2 °F 44% 30.09 in 10.0 mi South 16.1 mph 20.7 mph N/A   Clear
11:11 AM 53.6 °F - 30.2 °F 41% 30.08 in 10.0 mi SSE 12.7 mph 19.6 mph N/A   Clear
11:31 AM 53.6 °F - 30.2 °F 41% 30.08 in 10.0 mi SSE 16.1 mph 21.9 mph N/A   Clear
11:51 AM 53.6 °F - 30.2 °F 41% 30.07 in 10.0 mi SSE 15.0 mph - N/A   Clear
12:11 PM 53.6 °F - 30.2 °F 41% 30.07 in 10.0 mi SSE 16.1 mph - N/A   Clear
12:31 PM 55.4 °F - 30.2 °F 38% 30.07 in 10.0 mi SSE 13.8 mph - N/A   Clear
12:51 PM 55.4 °F - 30.2 °F 38% 30.06 in 10.0 mi SSE 12.7 mph 17.3 mph N/A   Clear
1:11 PM 55.4 °F - 30.2 °F 38% 30.06 in 10.0 mi SSE 12.7 mph - N/A   Clear
1:31 PM 55.4 °F - 30.2 °F 38% 30.05 in 10.0 mi SSE 13.8 mph 20.7 mph N/A   Clear
1:51 PM 55.4 °F - 30.2 °F 38% 30.05 in 10.0 mi SSE 16.1 mph - N/A   Clear
2:11 PM 55.4 °F - 32.0 °F 41% 30.04 in 10.0 mi SSE 15.0 mph - N/A   Clear
2:31 PM 57.2 °F - 32.0 °F 38% 30.05 in 10.0 mi SSE 15.0 mph 19.6 mph N/A   Clear
2:51 PM 55.4 °F - 32.0 °F 41% 30.05 in 10.0 mi SE 13.8 mph 19.6 mph N/A   Clear
3:11 PM 53.6 °F - 30.2 °F 41% 30.05 in 10.0 mi SSE 13.8 mph - N/A   Clear
3:31 PM 53.6 °F - 32.0 °F 44% 30.05 in 10.0 mi SE 8.1 mph - N/A   Clear
3:51 PM 55.4 °F - 32.0 °F 41% 30.05 in 10.0 mi SE 8.1 mph - N/A   Clear
4:11 PM 53.6 °F - 32.0 °F 44% 30.06 in 10.0 mi SE 9.2 mph - N/A   Clear
4:51 PM 51.8 °F - 32.0 °F 47% 30.06 in 10.0 mi ESE 5.8 mph - N/A   Clear
5:11 PM 48.2 °F - 32.0 °F 54% 30.06 in 10.0 mi SE 4.6 mph - N/A   Clear
5:31 PM 50.0 °F - 32.0 °F 50% 30.06 in 10.0 mi SE 6.9 mph - N/A   Clear
5:51 PM 50.0 °F - 32.0 °F 50% 30.06 in 10.0 mi SE 6.9 mph - N/A   Clear
6:11 PM 48.2 °F - 32.0 °F 54% 30.06 in 10.0 mi SE 5.8 mph - N/A   Clear
6:31 PM 48.2 °F - 32.0 °F 54% 30.07 in 10.0 mi SE 5.8 mph - N/A   Clear
6:51 PM 46.4 °F 44.3 °F 32.0 °F 57% 30.06 in 10.0 mi ESE 4.6 mph - N/A   Clear
7:12 PM 48.2 °F - 32.0 °F 54% 30.06 in 10.0 mi SE 9.2 mph - N/A   Clear
7:31 PM 48.2 °F - 33.8 °F 58% 30.06 in 10.0 mi SE 8.1 mph - N/A   Clear
7:51 PM 48.2 °F - 33.8 °F 58% 30.06 in 10.0 mi SE 9.2 mph - N/A   Clear
8:12 PM 50.0 °F - 33.8 °F 54% 30.06 in 10.0 mi SSE 10.4 mph - N/A   Clear
8:31 PM 50.0 °F - 33.8 °F 54% 30.06 in 10.0 mi SSE 9.2 mph - N/A   Clear
8:51 PM 51.8 °F - 33.8 °F 50% 30.06 in 10.0 mi SSE 11.5 mph - N/A   Clear
9:12 PM 51.8 °F - 33.8 °F 50% 30.07 in 10.0 mi SSE 10.4 mph - N/A   Clear
9:31 PM 51.8 °F - 33.8 °F 50% 30.07 in 10.0 mi SSE 12.7 mph 16.1 mph N/A   Clear
9:51 PM 50.0 °F - 33.8 °F 54% 30.07 in 10.0 mi SSE 9.2 mph - N/A   Clear
10:12 PM 48.2 °F - 33.8 °F 58% 30.07 in 10.0 mi SSE 9.2 mph - N/A   Clear
10:31 PM 48.2 °F - 33.8 °F 58% 30.07 in 10.0 mi SSE 8.1 mph - N/A   Clear
10:51 PM 48.2 °F - 33.8 °F 58% 30.07 in 10.0 mi SSE 11.5 mph - N/A   Clear
11:11 PM 48.2 °F - 33.8 °F 58% 30.07 in 10.0 mi SSE 10.4 mph - N/A   Clear
11:31 PM 48.2 °F - 33.8 °F 58% 30.07 in 10.0 mi SSE 9.2 mph - N/A   Clear
11:52 PM 46.4 °F 42.4 °F 32.0 °F 57% 30.07 in 10.0 mi SSE 8.1 mph - N/A   Clear